Weather Roundup
Issued by NWS Springfield, MO

Home | Current Version | Previous Version | Text Only | Print | Product List | Glossary On
Versions: 1 2 3 4 5 6 7 8 9 10 11 12 13 14 15 16 17 18 19 20 21 22 23 24 25 26 27 28 29 30 31 32 33 34 35 36 37 38 39 40 41 42 43 44 45 46 47 48 49 50
000
NZUS99 KSGF 281807
HRRSGF

HOURLY WEATHER
NATIONAL WEATHER SERVICE SPRINGFIELD MO
100 PM CDT THU MAY 28 2015

......SGF CWA......

CITY           SKY/WX    TMP DP  RH WIND       PRES   REMARKS
SPRINGFIELD    CLOUDY    75  68  78 S10       30.12S
6HR MIN TEMP:  68; 6HR MAX TEMP:  77;

JOPLIN         TSTM      65  64  97 W9        30.13F
6HR MIN TEMP:  65; 6HR MAX TEMP:  74; 6HR PCP:  0.14;

WEST PLAINS    CLOUDY    74  65  73 VRB5G20   30.18F
6HR MIN TEMP:  67; 6HR MAX TEMP:  75;

ROLLA          PTSUNNY   77  68  73 S14G20    30.12F
6HR MIN TEMP:  63; 6HR MAX TEMP:  78; 6HR PCP:  0.03;

OSAGE BEACH    CLOUDY    79  70  73 SE10      30.10F
BRANSON        CLOUDY    77  68  73 S7        30.15F

......SURROUNDING SGF CWA......

CITY           SKY/WX    TMP DP  RH WIND       PRES   REMARKS
CHANUTE        LGT RAIN  66  65  96 S12       30.12S
PARSONS        LGT RAIN  67  66  97 CALM      30.14S
COFFEYVILLE    LGT RAIN  68  65  90 CALM      30.12S FOG
EMPORIA        CLOUDY    69  65  86 S15G23    30.06S
GROVE OK       LGT RAIN  68  68 100 N5        30.12F
ROGERS AR      LGT RAIN  72  69  90 SE5       30.13F
SILOAM SPRINGS CLOUDY    70  63  78 CALM      30.12F
HARRISON AR    CLOUDY    76  68  76 S10       30.14F
NEAR YELLVILLE CLOUDY    81  70  69 SE5       30.10F

......KANSAS AND MISSOURI......

CITY           SKY/WX    TMP DP  RH WIND       PRES   REMARKS
KANSAS CTY INT CLOUDY    67  64  90 SE9       30.09S
DOWNTOWN KC    CLOUDY    71  63  75 SE7       30.08S
COLUMBIA       TSTM      75  68  78 SW30G40   30.12R
SEDALIA        CLOUDY    81  68  64 SE8       30.09F
ST JOSEPH      CLOUDY    69  65  86 S8        30.08R
ST LOUIS       PTSUNNY   84  67  56 S7        30.14S
SPIRIT OF STL  PTSUNNY   82  67  60 SE6       30.11F
KIRKSVILLE     PTSUNNY   76  63  64 SE12      30.12F
WICHITA        CLOUDY    69  63  81 SE21G28   30.05S
TOPEKA         CLOUDY    70  65  84 SE12      30.06F
OLATHE         TSTM      69  64  84 S15G25    30.10R

......TENNESSEE......

CITY           SKY/WX    TMP DP  RH WIND       PRES   REMARKS
MEMPHIS        CLOUDY    78  67  68 VRB6      30.17S
NASHVILLE      PTSUNNY   80  64  58 S5        30.20F

......ARKANSAS.......

CITY           SKY/WX    TMP DP  RH WIND       PRES   REMARKS
FAYETTEVILLE   TSTM      70  68  93 SE3       30.11F
FT SMITH       LGT RAIN  68  64  87 SE6       30.08F
LITTLE ROCK    PTSUNNY   83  66  56 SE12G18   30.11F

......OKLAHOMA.......

CITY           SKY/WX    TMP DP  RH WIND       PRES   REMARKS
TULSA          CLOUDY    69  65  86 S5        30.09R
PONCA CITY     CLOUDY    74  66  76 S12       30.06F
MCALESTER      TSTM      69  66  90 CALM      30.11S
OKLAHOMA CITY  PTSUNNY   76  66  71 S8        30.08R

......IOWA............

CITY           SKY/WX    TMP DP  RH WIND       PRES   REMARKS
DES MOINES     CLOUDY    77  58  51 S13       30.07F
QUAD CITIES    SUNNY     82  53  36 SE16      30.13F

......ILLINOIS........

CITY           SKY/WX    TMP DP  RH WIND       PRES   REMARKS
QUINCY         PTSUNNY   77  59  53 SE10      30.14S
CHICAGO        PTSUNNY   81  56  42 SE10G18   30.17F




USA.gov is the U.S. government's official web portal to all federal, state and local government web resources and services.